Weather History for KVBT - February, 2014

Change the Weather History Date:

Monday, February 17, 2014

  Actual Average Record
Temperature  
Mean Temperature 48 °F -  
Max Temperature 59 °F 48 °F 74 °F (1976)
Min Temperature 37 °F 26 °F 6 °F (2015)
Degree Days  
Heating Degree Days 17    
Moisture  
Dew Point 32 °F    
Average Humidity 49    
Maximum Humidity 72    
Minimum Humidity 27    
Precipitation  
Precipitation 0.00 in - - ()
Sea Level Pressure  
Sea Level Pressure 29.98 in    
Wind  
Wind Speed 11 mph (SW)    
Max Wind Speed 24 mph    
Max Gust Speed 32 mph    
Visibility 10 miles    
Events      
Averages and records for this station are not official NWS values.
T = Trace of Precipitation, MM = Missing Value Source: NWS Daily Summary

Daily Weather History Graph

Daily Weather History Graph

Search for Another Location

Airport or City:

Trip Planner

Search our weather history database for the weather conditions in past years. The results will help you decide how hot, cold, wet, or windy it might be!

Date:

Astronomy

Feb. 17, 2014 Rise Set
Actual Time 7:02 AM CST 5:59 PM CST
Civil Twilight 6:36 AM CST 6:26 PM CST
Nautical Twilight 6:05 AM CST 6:56 PM CST
Astronomical Twilight 5:36 AM CST 7:26 PM CST
Moon 8:48 PM CST (2/17) 8:08 AM CST (2/17)
Length of Visible Light 11h 50m
Length of Day
10h 57m
Waning Gibbous, 93% of the Moon is Illuminated
Feb 17
Waning Gibbous
Feb 22
Last Quarter
Mar 1
New
Mar 8
First Quarter
Mar 16
Full

Hourly Weather History & Observations

Time (CST) Temp. Windchill Dew Point Humidity Pressure Visibility Wind Dir Wind Speed Gust Speed Precip Events Conditions
12:15 AM 51.8 °F - 32.0 °F 47% 29.90 in 10.0 mi SE 12.7 mph - N/A   Overcast
12:35 AM 51.8 °F - 32.0 °F 47% 29.90 in 10.0 mi SE 13.8 mph - N/A   Overcast
12:55 AM 51.8 °F - 33.8 °F 50% 29.89 in 10.0 mi SE 11.5 mph - N/A   Overcast
1:15 AM 50.0 °F - 33.8 °F 54% 29.88 in 10.0 mi SE 11.5 mph 16.1 mph N/A   Overcast
1:35 AM 50.0 °F - 33.8 °F 54% 29.87 in 10.0 mi SE 15.0 mph 19.6 mph N/A   Overcast
1:55 AM 50.0 °F - 33.8 °F 54% 29.86 in 10.0 mi SE 13.8 mph 19.6 mph N/A   Overcast
2:15 AM 50.0 °F - 35.6 °F 58% 29.84 in 10.0 mi SE 12.7 mph - N/A   Overcast
2:35 AM 51.8 °F - 35.6 °F 54% 29.82 in 10.0 mi SE 13.8 mph - N/A   Overcast
2:55 AM 51.8 °F - 35.6 °F 54% 29.82 in 10.0 mi SSE 11.5 mph 16.1 mph N/A   Overcast
3:15 AM 51.8 °F - 37.4 °F 58% 29.81 in 10.0 mi SE 10.4 mph - N/A   Overcast
3:35 AM 51.8 °F - 37.4 °F 58% 29.80 in 10.0 mi SE 11.5 mph - N/A   Overcast
3:55 AM 51.8 °F - 37.4 °F 58% 29.81 in 10.0 mi SE 8.1 mph - N/A   Overcast
4:15 AM 51.8 °F - 37.4 °F 58% 29.79 in 10.0 mi SE 11.5 mph - N/A   Overcast
4:35 AM 51.8 °F - 37.4 °F 58% 29.80 in 10.0 mi SE 9.2 mph - N/A   Overcast
4:55 AM 51.8 °F - 39.2 °F 62% 29.79 in 10.0 mi SE 11.5 mph - N/A   Overcast
5:15 AM 51.8 °F - 39.2 °F 62% 29.80 in 10.0 mi SSE 11.5 mph - N/A   Overcast
5:35 AM 51.8 °F - 39.2 °F 62% 29.80 in 10.0 mi SSE 6.9 mph - N/A   Overcast
5:55 AM 51.8 °F - 39.2 °F 62% 29.81 in 10.0 mi SSE 5.8 mph - N/A   Overcast
6:15 AM 51.8 °F - 39.2 °F 62% 29.81 in 10.0 mi SSE 3.5 mph - N/A   Overcast
6:35 AM 51.8 °F - 41.0 °F 67% 29.82 in 10.0 mi Calm Calm - N/A   Overcast
6:55 AM 51.8 °F - 41.0 °F 67% 29.83 in 10.0 mi Calm Calm - N/A   Overcast
7:15 AM 53.6 °F - 42.8 °F 67% 29.84 in 10.0 mi WSW 5.8 mph - N/A   Overcast
7:35 AM 53.6 °F - 44.6 °F 72% 29.85 in 10.0 mi WSW 12.7 mph 17.3 mph N/A   Overcast
7:55 AM 53.6 °F - 44.6 °F 72% 29.86 in 10.0 mi SW 11.5 mph - N/A   Overcast
8:15 AM 53.6 °F - 44.6 °F 72% 29.87 in 10.0 mi SW 11.5 mph 16.1 mph N/A   Overcast
8:35 AM 53.6 °F - 44.6 °F 72% 29.89 in 10.0 mi WSW 10.4 mph - N/A   Overcast
8:55 AM 55.4 °F - 44.6 °F 67% 29.88 in 10.0 mi WSW 11.5 mph - N/A   Mostly Cloudy
9:15 AM 55.4 °F - 44.6 °F 67% 29.90 in 10.0 mi West 15.0 mph 24.2 mph N/A   Scattered Clouds
9:35 AM 55.4 °F - 39.2 °F 54% 29.92 in 10.0 mi West 18.4 mph 27.6 mph N/A   Partly Cloudy
9:55 AM 55.4 °F - 35.6 °F 47% 29.94 in 10.0 mi WNW 17.3 mph 29.9 mph N/A   Clear
10:15 AM 55.4 °F - 35.6 °F 47% 29.95 in 10.0 mi WNW 17.3 mph 24.2 mph N/A   Clear
10:35 AM 55.4 °F - 37.4 °F 51% 29.96 in 10.0 mi NW 13.8 mph 19.6 mph N/A   Clear
10:55 AM 57.2 °F - 35.6 °F 44% 29.98 in 10.0 mi WNW 16.1 mph 25.3 mph N/A   Clear
11:15 AM 55.4 °F - 35.6 °F 47% 30.00 in 10.0 mi WNW 16.1 mph 27.6 mph N/A   Clear
11:35 AM 55.4 °F - 35.6 °F 47% 30.02 in 10.0 mi NW 24.2 mph 32.2 mph N/A   Clear
11:55 AM 55.4 °F - 35.6 °F 47% 30.03 in 10.0 mi NW 16.1 mph 26.5 mph N/A   Clear
12:15 PM 57.2 °F - 33.8 °F 41% 30.03 in 10.0 mi NW 17.3 mph 27.6 mph N/A   Clear
12:35 PM 55.4 °F - 32.0 °F 41% 30.03 in 10.0 mi NNW 15.0 mph 29.9 mph N/A   Clear
12:55 PM 57.2 °F - 30.2 °F 36% 30.04 in 10.0 mi NNW 20.7 mph 29.9 mph N/A   Clear
1:15 PM 57.2 °F - 28.4 °F 33% 30.03 in 10.0 mi NNW 17.3 mph 27.6 mph N/A   Clear
1:35 PM 57.2 °F - 26.6 °F 31% 30.03 in 10.0 mi NNW 16.1 mph 25.3 mph N/A   Clear
1:55 PM 57.2 °F - 26.6 °F 31% 30.03 in 10.0 mi North 18.4 mph - N/A   Clear
2:15 PM 57.2 °F - 24.8 °F 29% 30.03 in 10.0 mi NNW 13.8 mph 25.3 mph N/A   Clear
2:35 PM 57.2 °F - 26.6 °F 31% 30.02 in 10.0 mi North 15.0 mph 18.4 mph N/A   Clear
2:55 PM 57.2 °F - 26.6 °F 31% 30.02 in 10.0 mi North 13.8 mph 19.6 mph N/A   Clear
3:15 PM 57.2 °F - 24.8 °F 29% 30.03 in 10.0 mi NNW 10.4 mph - N/A   Clear
3:35 PM 59.0 °F - 24.8 °F 27% 30.04 in 10.0 mi North 13.8 mph 18.4 mph N/A   Clear
3:55 PM 59.0 °F - 24.8 °F 27% 30.04 in 10.0 mi NNW 11.5 mph 19.6 mph N/A   Clear
4:15 PM 59.0 °F - 24.8 °F 27% 30.04 in 10.0 mi NW 11.5 mph - N/A   Clear
4:35 PM 57.2 °F - 24.8 °F 29% 30.07 in 10.0 mi NW 11.5 mph 18.4 mph N/A   Clear
4:55 PM 57.2 °F - 24.8 °F 29% 30.08 in 10.0 mi NW 11.5 mph 19.6 mph N/A   Clear
5:15 PM 57.2 °F - 24.8 °F 29% 30.08 in 10.0 mi NNW 11.5 mph - N/A   Clear
5:35 PM 55.4 °F - 24.8 °F 31% 30.10 in 10.0 mi NW 8.1 mph - N/A   Clear
5:55 PM 53.6 °F - 24.8 °F 33% 30.11 in 10.0 mi WNW 6.9 mph - N/A   Clear
6:15 PM 51.8 °F - 24.8 °F 35% 30.11 in 10.0 mi Calm Calm - N/A   Clear
6:35 PM 48.2 °F - 24.8 °F 40% 30.11 in 10.0 mi WSW 4.6 mph - N/A   Clear
6:55 PM 48.2 °F - 24.8 °F 40% 30.12 in 10.0 mi WSW 3.5 mph - N/A   Clear
7:15 PM 44.6 °F 43.1 °F 24.8 °F 46% 30.11 in 10.0 mi SSW 3.5 mph - N/A   Clear
7:35 PM 46.4 °F 44.3 °F 24.8 °F 43% 30.11 in 10.0 mi SSW 4.6 mph - N/A   Clear
7:55 PM 44.6 °F 42.2 °F 24.8 °F 46% 30.12 in 10.0 mi South 4.6 mph - N/A   Clear
8:15 PM 44.6 °F 41.4 °F 24.8 °F 46% 30.11 in 10.0 mi South 5.8 mph - N/A   Clear
8:35 PM 42.8 °F 39.3 °F 24.8 °F 49% 30.11 in 10.0 mi South 5.8 mph - N/A   Clear
8:55 PM 42.8 °F 39.3 °F 23.0 °F 46% 30.11 in 10.0 mi South 5.8 mph - N/A   Clear
9:15 PM 42.8 °F 40.1 °F 23.0 °F 46% 30.12 in 10.0 mi South 4.6 mph - N/A   Clear
9:35 PM 42.8 °F 40.1 °F 24.8 °F 49% 30.12 in 10.0 mi South 4.6 mph - N/A   Clear
9:55 PM 39.2 °F 37.0 °F 24.8 °F 56% 30.12 in 10.0 mi South 3.5 mph - N/A   Clear
10:15 PM 39.2 °F 35.9 °F 23.0 °F 52% 30.13 in 10.0 mi South 4.6 mph - N/A   Clear
10:35 PM 41.0 °F 38.0 °F 23.0 °F 49% 30.13 in 10.0 mi South 4.6 mph - N/A   Clear
10:55 PM 37.4 °F 32.8 °F 23.0 °F 56% 30.11 in 10.0 mi South 5.8 mph - N/A   Clear
11:15 PM 37.4 °F 33.8 °F 23.0 °F 56% 30.11 in 10.0 mi South 4.6 mph - N/A   Clear
11:35 PM 37.4 °F 34.9 °F 23.0 °F 56% 30.10 in 10.0 mi South 3.5 mph - N/A   Clear
11:55 PM 39.2 °F - 23.0 °F 52% 30.10 in 10.0 mi Calm Calm - N/A   Clear